Location: Powder Track
(41.8531°N, 72.3584°W)
Time: 17:44:13
(UTC+00:00)

Vanguard 1 Rocket - Pass Details

Date: 11 August 2021
Orbit: 650 x 4226 km, 34.3° (Epoch: 20 September)

Event Time Altitude Azimuth Distance (km) Brightness Sun altitude
Rises 13:47:39 0° 254° (WSW) 8,462 12.0 41.8°
Reaches altitude 10° 13:53:41 10° 252° (WSW) 7,409 11.8 42.9°
Maximum altitude 14:18:17 67° 177° (S) 3,399 11.3 47.0°
Drops below altitude 10° 14:32:29 10° 99° (E) 4,623 11.8 49.4°
Sets 14:35:17 0° 96° (E) 5,268 11.9 49.8°
